sat.trackr.live / text

‹ back to catalog

STARLINK-37900

NORAD 69953 · 2026-157L

PAYLOAD ACTIVE UNKNOWN

§ Identity

Operator
Country
US
Launch date
2026-07-09
Launch site
AFETR
Launch vehicle
Mass (kg)
RCS (m²)

Purposes: comms

External: N2YO · Heavens-Above · Gunter

§ Orbital elements

Epoch: 2026-09-18T21:02:11.453280Z

Period
93.85 min
Inclination
53.1593°
Eccentricity
0.0001714
Mean motion
15.34429382 rev/d
Perigee alt
461.4 km
Apogee alt
463.8 km
Semi-major
6,840.8 km
B*
7.6775e-4
RAAN
341.3117°
Arg perigee
51.5677°
Mean anomaly
308.5479°
Rev number
1,112

§ Raw data

STARLINK-379001 69953U 26157L   26261.87652145  .00025677  00000+0  76775-3 0  99992 69953  53.1593 341.3117 0001714  51.5677 308.5479 15.34429382 11126

JSON: /api/v1/satellites/69953 · /tle

For live sub-satellite position, see the globe view (requires WebGL).

§ Visibility from observer

Set your observer location to see the next 7 days of passes ≥ 10°. The values pass through the URL so the page stays shareable.

No JS? Fill the form by hand. The geolocation button needs JavaScript.